Weather History for Beverly, MA

Change the Weather History Date:

Sunday, February 3, 2013

  Actual Average Record
Temperature  
Mean Temperature 32 °F -  
Max Temperature 39 °F 34 °F 57 °F (1983)
Min Temperature 25 °F 17 °F 9 °F (2000)
Degree Days  
Heating Degree Days 33    
Moisture  
Dew Point 18 °F    
Average Humidity 60    
Maximum Humidity 75    
Minimum Humidity 32    
Precipitation  
Precipitation 0.00 in - - ()
Sea Level Pressure  
Sea Level Pressure 29.87 in    
Wind  
Wind Speed 6 mph (NNW)    
Max Wind Speed 12 mph    
Max Gust Speed -    
Visibility 7 miles    
Events Snow    
Averages and records for this station are not official NWS values.
T = Trace of Precipitation, MM = Missing Value Source: NWS Daily Summary

Daily Weather History Graph

Daily Weather History Graph

Search for Another Location

Airport:

Trip Planner

Search our weather history database for the weather conditions in past years. The results will help you decide how hot, cold, wet, or windy it might be!

Date:

Astronomy

Feb. 03, 2013 Rise Set
Actual Time 6:55 AM EST 5:00 PM EST
Civil Twilight 6:25 AM EST 5:29 PM EST
Nautical Twilight 5:52 AM EST 6:03 PM EST
Astronomical Twilight 5:19 AM EST 6:36 PM EST
Moon 12:19 AM EST (2/3) 10:34 AM EST (2/3)
Length of Visible Light 11h 04m
Length of Day
10h 04m
Waning Gibbous, 49% of the Moon is Illuminated
Feb 3
Waning Gibbous
Feb 10
New
Feb 17
First Quarter
Feb 25
Full
Mar 4
Last Quarter

Hourly Weather History & Observations

Time (EST) Temp. Windchill Dew Point Humidity Pressure Visibility Wind Dir Wind Speed Gust Speed Precip Events Conditions
12:53 AM 39.0 °F 32.8 °F 10.9 °F 32% 30.03 in 10.0 mi West 9.2 mph - N/A   Overcast
1:53 AM 35.1 °F 31.0 °F 14.0 °F 42% 30.02 in 10.0 mi West 4.6 mph - 0.00 in   Overcast
2:53 AM 32.0 °F 28.7 °F 16.0 °F 52% 30.00 in 4.0 mi NNW 3.5 mph - 0.00 in Snow Light Snow
3:53 AM 27.0 °F 21.6 °F 17.1 °F 66% 29.97 in 10.0 mi NNW 4.6 mph - 0.00 in   Overcast
4:53 AM 27.0 °F - 18.0 °F 69% 29.98 in 4.0 mi Calm Calm - 0.00 in Snow Light Snow
5:17 AM 28.4 °F - 19.4 °F 69% 29.99 in 2.5 mi Calm Calm - 0.00 in Snow Light Snow
5:32 AM 26.6 °F - 19.4 °F 74% 29.98 in 1.5 mi Calm Calm - 0.00 in Snow Light Snow
5:43 AM 28.4 °F - 19.4 °F 69% 29.98 in 2.0 mi Calm Calm - 0.00 in Snow Light Snow
5:53 AM 27.0 °F 23.0 °F 19.0 °F 72% 29.97 in 4.0 mi North 3.5 mph - 0.00 in Snow Light Snow
6:53 AM 25.0 °F 18.1 °F 18.0 °F 75% 29.94 in 5.0 mi NNW 5.8 mph - 0.00 in   Haze
7:53 AM 26.1 °F 19.4 °F 18.0 °F 71% 29.95 in 10.0 mi NNW 5.8 mph - N/A   Clear
8:19 AM 26.6 °F 21.2 °F 17.6 °F 69% 29.97 in 10.0 mi North 4.6 mph - N/A   Mostly Cloudy
8:45 AM 26.6 °F 18.2 °F 17.6 °F 69% 29.95 in 10.0 mi NNW 8.1 mph - N/A   Overcast
8:53 AM 27.0 °F 19.5 °F 17.1 °F 66% 29.95 in 10.0 mi North 6.9 mph - N/A   Overcast
9:53 AM 30.0 °F 21.7 °F 18.0 °F 61% 29.93 in 5.0 mi North 9.2 mph - 0.00 in Snow Light Snow
10:53 AM 30.9 °F 22.8 °F 18.0 °F 59% 29.90 in 10.0 mi North 9.2 mph - 0.00 in   Overcast
11:41 AM 28.4 °F 20.4 °F 17.6 °F 64% 29.87 in 10.0 mi NNW 8.1 mph - N/A   Overcast
11:53 AM 30.0 °F 20.5 °F 18.0 °F 61% 29.86 in 8.0 mi NNW 11.5 mph - N/A   Overcast
12:53 PM 35.1 °F 27.4 °F 18.0 °F 50% 29.82 in 10.0 mi NW 10.4 mph - 0.00 in   Overcast
1:53 PM 30.9 °F 23.5 °F 17.1 °F 57% 29.80 in 10.0 mi North 8.1 mph - N/A   Overcast
2:38 PM 32.0 °F 24.2 °F 17.6 °F 55% 29.79 in 10.0 mi North 9.2 mph - N/A   Overcast
2:53 PM 32.0 °F 24.8 °F 17.1 °F 54% 29.78 in 6.0 mi NNW 8.1 mph - 0.00 in Snow Light Snow
3:53 PM 30.9 °F 23.5 °F 18.0 °F 59% 29.78 in 4.0 mi North 8.1 mph - 0.00 in Snow Light Snow
4:18 PM 30.2 °F 21.9 °F 17.6 °F 60% 29.78 in 2.0 mi North 9.2 mph - 0.00 in Snow Light Snow
4:39 PM 30.2 °F 22.6 °F 19.4 °F 64% 29.77 in 3.0 mi North 8.1 mph - 0.00 in Snow Light Snow
4:53 PM 30.0 °F 23.2 °F 19.0 °F 64% 29.76 in 3.0 mi North 6.9 mph - 0.00 in Snow Light Snow
5:53 PM 28.0 °F 19.3 °F 18.0 °F 66% 29.75 in 8.0 mi North 9.2 mph - 0.00 in Snow Light Snow
6:53 PM 28.0 °F 20.0 °F 19.0 °F 69% 29.76 in 8.0 mi NNW 8.1 mph - 0.00 in   Overcast
7:53 PM 28.0 °F 20.0 °F 19.0 °F 69% 29.75 in 10.0 mi NNW 8.1 mph - 0.00 in   Overcast
8:53 PM 37.9 °F 33.5 °F 17.1 °F 43% 29.74 in 10.0 mi NW 5.8 mph - N/A   Overcast
9:53 PM 39.0 °F 34.8 °F 17.1 °F 41% 29.73 in 10.0 mi NW 5.8 mph - N/A   Overcast
10:53 PM 36.0 °F 29.6 °F 17.1 °F 46% 29.71 in 9.0 mi NW 8.1 mph - 0.00 in   Overcast
11:53 PM 39.0 °F 35.7 °F 16.0 °F 39% 29.70 in 10.0 mi WNW 4.6 mph - N/A   Overcast